TimeCDT,TemperatureF,Dew PointF,Humidity,Sea Level PressureIn,VisibilityMPH,Wind Direction,Wind SpeedMPH,Gust SpeedMPH,PrecipitationIn,Events,Conditions,WindDirDegrees,DateUTC
12:55 AM,36.5,25.5,64,30.06,10.0,SW,8.1,-,N/A,,Overcast,230,2012-10-07 05:55:00
1:55 AM,36.9,25.5,64,30.04,10.0,SW,10.4,-,N/A,,Partly Cloudy,230,2012-10-07 06:55:00
2:55 AM,37.2,25.9,64,30.02,10.0,SW,10.4,-,N/A,,Overcast,230,2012-10-07 07:55:00
3:55 AM,36.7,25.9,65,29.98,10.0,SW,11.5,-,N/A,,Partly Cloudy,230,2012-10-07 08:55:00
4:55 AM,38.5,26.2,61,29.96,10.0,WSW,10.4,-,N/A,,Overcast,240,2012-10-07 09:55:00
5:55 AM,38.5,26.8,63,29.94,10.0,WSW,8.1,-,N/A,,Overcast,250,2012-10-07 10:55:00
6:55 AM,37.4,26.8,66,29.93,10.0,WSW,8.1,-,N/A,,Overcast,250,2012-10-07 11:55:00
7:55 AM,36.0,27.0,70,29.94,10.0,West,9.2,-,N/A,,Partly Cloudy,260,2012-10-07 12:55:00
8:55 AM,36.7,27.1,68,29.94,10.0,West,9.2,-,N/A,,Overcast,280,2012-10-07 13:55:00
9:55 AM,42.1,27.3,56,29.92,10.0,WNW,13.8,18.4,N/A,,Clear,300,2012-10-07 14:55:00
10:55 AM,45.1,28.0,51,29.93,10.0,WNW,10.4,-,N/A,,Overcast,300,2012-10-07 15:55:00
11:55 AM,48.2,28.4,46,29.92,10.0,NW,10.4,-,N/A,,Mostly Cloudy,310,2012-10-07 16:55:00
12:55 PM,51.3,27.9,40,29.90,10.0,NW,9.2,-,N/A,,Clear,310,2012-10-07 17:55:00
1:55 PM,53.2,28.8,39,29.87,10.0,Variable,6.9,-,N/A,,Clear,0,2012-10-07 18:55:00
2:55 PM,54.7,29.7,38,29.84,10.0,WNW,11.5,-,N/A,,Partly Cloudy,300,2012-10-07 19:55:00
3:55 PM,54.1,29.7,39,29.82,10.0,West,10.4,-,N/A,,Partly Cloudy,280,2012-10-07 20:55:00
4:55 PM,54.1,28.0,37,29.81,10.0,WNW,10.4,-,N/A,,Overcast,290,2012-10-07 21:55:00
5:55 PM,53.4,28.0,38,29.80,10.0,WNW,12.7,-,N/A,,Mostly Cloudy,300,2012-10-07 22:55:00
6:55 PM,51.8,27.9,40,29.80,10.0,WNW,11.5,-,N/A,,Partly Cloudy,300,2012-10-07 23:55:00
7:55 PM,46.9,34.9,63,29.80,10.0,West,10.4,-,0.00,,Clear,280,2012-10-08 00:55:00
8:55 PM,43.9,38.5,81,29.80,10.0,WSW,8.1,-,0.00,,Scattered Clouds,240,2012-10-08 01:55:00
9:55 PM,43.2,38.3,83,29.76,10.0,South,4.6,-,N/A,,Mostly Cloudy,190,2012-10-08 02:55:00
10:55 PM,42.6,38.5,85,29.72,10.0,South,6.9,-,N/A,,Overcast,180,2012-10-08 03:55:00
11:55 PM,42.6,37.9,83,29.68,10.0,SSE,6.9,-,N/A,,Overcast,160,2012-10-08 04:55:00